Temperature
29 30 29 28 27 27 27 27 28 29 29 27 26 25 25 25 26 25 24 23 22 21 20 19 19 18 18 18 17 17 17 17 17 16 16 16 16 16 16 16 16 16 16 15
27 29 29 27 27 26 26 27 28 29 29 28 26 25 24 25 25 25 24 23 22 21 20 19 19 18 18 18 17 17 17 17 17 17 16 16 16 16 16 16 16 15 15 15
26 28 27 26 27 27 27 28 29 28 29 28 26 25 25 25 24 24 23 23 22 21 20 19 19 18 18 18 17 17 17 17 16 16 16 16 16 16 16 16 15 15 15 15
25 26 24 27 29 29 28 28 29 29 28 27 26 24 24 24 23 23 23 22 21 20 20 19 18 18 18 18 17 17 17 16 16 16 16 16 15 15 15 15 15 15 15 14
24 25 25 27 27 27 26 27 28 27 26 25 24 24 23 22 22 21 21 21 20 20 19 18 18 18 18 17 17 17 16 16 16 15 15 15 15 15 14 14 14 14 14 14
24 23 23 25 27 26 26 25 25 25 25 24 24 24 21 19 19 19 19 19 19 19 18 18 17 17 17 17 16 16 15 15 15 15 15 15 14 14 14 13 13 13 13 12
23 23 24 24 26 26 24 22 23 23 23 22 21 20 18 17 17 17 17 17 17 17 17 17 17 17 16 16 15 15 15 15 14 14 14 14 13 13 13 13 12 12 12 11
22 22 22 23 23 22 21 22 22 21 20 19 18 18 16 16 15 15 15 15 16 16 16 16 16 16 15 15 14 14 14 14 13 13 13 13 12 12 12 12 12 11 11 10
22 21 21 21 21 21 21 20 20 20 19 18 17 16 15 15 14 14 14 14 14 14 14 14 14 14 14 13 13 13 13 13 12 12 12 12 12 11 11 11 11 10 10 10
21 21 21 20 20 19 19 19 18 18 18 17 16 15 14 14 13 13 13 13 13 13 13 13 13 13 13 13 13 13 12 12 11 11 11 11 11 11 11 10 10 10 10 9
20 20 20 19 18 18 17 17 17 16 16 15 15 14 13 13 12 12 12 12 12 12 12 12 12 12 12 12 12 12 11 11 11 11 10 10 10 10 10 10 10 10 9 9
18 18 17 17 16 16 15 15 15 15 14 14 14 13 12 12 11 11 11 11 11 11 11 11 11 11 11 11 11 11 11 10 10 10 10 10 10 10 9 9 9 9 9 8
17 16 15 15 15 14 14 14 13 13 13 12 12 12 11 11 10 10 10 10 10 10 10 10 10 10 10 10 10 10 10 10 10 10 9 9 9 9 9 8 8 8 8 7
15 15 14 14 13 13 13 12 12 11 11 11 11 11 10 10 10 10 10 9 9 9 9 9 9 9 9 10 10 10 10 10 10 10 9 9 9 9 8 8 7 7 7 6
14 14 13 13 12 12 11 11 11 10 10 10 10 10 9 9 9 9 9 9 9 9 9 9 9 9 9 9 9 9 9 9 10 10 10 9 9 9 8 8 7 7 6 6
13 13 13 12 11 11 10 10 10 9 9 9 9 9 9 9 9 9 9 9 9 9 8 8 8 8 8 9 9 9 9 9 9 9 9 9 9 9 8 8 7 7 6 5
13 13 12 12 11 10 10 10 9 9 9 9 9 9 9 9 8 8 8 8 8 8 8 8 8 8 8 9 9 9 9 9 9 9 9 9 9 8 8 7 7 6 6 5
13 12 12 11 11 10 10 10 9 9 9 9 9 9 9 9 9 8 8 8 8 8 8 8 8 8 8 8 9 9 9 9 9 8 8 8 8 8 7 7 6 6 6 5
13 12 12 11 11 10 10 10 9 9 9 9 9 9 9 9 9 8 8 8 8 8 8 8 8 8 8 8 8 9 9 8 8 8 8 7 7 7 7 6 6 6 5 5
12 12 11 11 11 11 10 10 10 9 9 9 9 9 9 9 9 9 8 8 8 8 8 8 8 8 8 8 8 8 8 8 8 8 7 7 7 7 6 6 6 5 5 4
12 11 11 11 11 11 10 10 10 10 10 10 10 9 9 9 9 8 8 8 8 8 8 7 7 7 8 8 8 8 8 8 7 7 7 7 6 6 6 5 5 5 4 4
12 11 11 11 11 11 10 10 10 10 10 10 10 9 9 9 8 8 8 8 8 8 7 7 7 7 8 8 8 8 8 7 7 7 6 6 6 6 5 5 5 4 4 4
11 11 11 11 11 11 11 10 10 10 10 10 10 9 9 9 9 8 8 7 7 7 7 7 7 7 7 8 8 7 7 7 7 7 6 6 6 5 5 5 4 4 4 3
11 11 11 11 11 11 11 10 10 10 10 10 9 9 9 9 8 8 8 7 7 7 7 7 7 7 7 7 7 7 7 6 6 6 6 6 6 5 5 4 4 4 4 3
11 11 11 11 11 11 10 10 10 10 10 10 10 9 9 9 8 8 7 7 7 7 7 6 6 6 7 7 7 6 6 6 6 6 6 5 5 5 5 4 4 4 3 3
11 11 11 11 11 11 11 11 11 10 10 10 10 9 9 8 8 7 7 7 6 6 6 6 6 6 6 6 6 6 6 6 6 6 5 5 5 5 4 4 4 3 3 3
11 11 11 11 11 11 11 11 10 10 10 10 9 9 8 8 8 7 7 7 6 6 6 6 6 6 7 7 6 6 6 6 6 6 5 5 5 4 4 4 3 3 3 3
Wind_Speed
18 16 10 8 10 12 13 15 16 13 9 2 2 1 3 4 7 10 11 13 12 12 11 11 10 10 10 10 10 11 11 11 10 9 8 8 7 6 6 5 5 4 2 2
16 16 13 10 9 10 14 16 18 15 11 5 2 3 4 6 9 10 11 12 13 12 12 12 11 11 10 9 9 9 9 9 9 8 8 7 7 6 6 5 5 5 5 5
15 16 14 13 12 13 15 17 15 13 6 2 3 4 5 6 8 8 10 11 12 12 11 10 10 11 10 10 9 9 8 8 8 8 8 7 7 7 7 7 7 8 8 9
13 15 18 11 9 10 11 11 10 7 7 6 6 7 8 7 6 5 5 7 9 10 10 10 10 10 9 10 9 9 8 8 8 8 8 7 7 8 8 8 8 8 9 9
11 15 15 13 9 8 9 10 8 6 6 6 6 3 7 9 8 8 7 6 6 8 10 9 9 10 10 9 9 9 8 7 7 8 8 9 9 9 8 8 9 9 9 10
11 13 13 8 6 7 7 6 10 9 7 4 4 3 4 10 12 12 11 9 8 8 9 9 8 10 11 10 9 9 8 8 8 9 10 10 10 9 9 9 10 10 10 10
14 14 11 6 7 5 7 3 9 9 8 7 6 6 7 10 12 11 11 10 10 9 9 8 9 11 11 11 10 10 10 11 11 11 11 11 10 10 10 10 11 11 11 10
10 12 6 11 8 6 6 7 7 7 7 8 8 8 9 10 10 11 11 11 11 10 10 9 10 12 13 12 11 12 12 13 12 11 11 11 10 10 10 10 10 9 9 8
3 3 5 7 6 7 7 7 6 5 5 5 6 7 9 10 10 11 11 11 11 12 13 11 11 12 14 12 12 14 14 14 13 13 11 10 10 9 7 6 6 6 6 7
5 3 4 6 7 8 7 6 5 4 3 4 6 8 10 11 11 11 11 11 12 14 15 13 13 14 13 12 13 15 15 13 12 12 11 11 9 8 7 5 4 5 6 7
6 5 6 6 8 8 7 6 5 4 4 5 7 10 11 12 12 12 12 12 12 14 14 14 14 14 12 12 13 14 14 13 12 11 12 12 12 10 10 9 9 8 8 7
3 4 4 5 6 6 5 5 4 5 6 7 9 13 14 13 13 13 13 13 14 15 15 14 14 13 12 11 11 12 11 10 9 9 9 10 11 12 17 13 15 16 14 11
2 4 3 3 5 5 4 5 7 7 9 11 12 14 16 15 14 15 15 14 14 15 14 13 13 12 11 10 9 10 9 8 7 7 8 8 8 9 9 9 13 13 12 11
4 3 2 2 4 5 7 10 11 11 11 13 14 15 16 17 15 15 15 14 13 14 13 13 13 12 10 9 9 8 9 8 7 6 6 7 6 7 7 7 7 5 5 5
6 5 5 6 8 9 10 12 13 13 14 15 15 15 16 16 16 15 14 13 13 14 13 13 12 10 8 9 9 9 8 6 5 5 5 5 5 6 6 7 7 6 5 3
7 8 9 10 11 11 12 13 14 16 16 16 15 15 15 16 16 14 12 12 13 13 11 11 10 9 7 7 8 7 6 6 4 4 5 4 4 5 5 5 6 5 5 4
9 9 10 11 11 12 13 14 15 15 16 16 15 16 16 16 15 13 12 12 12 12 10 9 9 7 6 5 4 5 6 5 4 5 5 5 5 6 6 5 5 5 6 5
9 10 10 12 13 14 15 16 16 16 15 16 16 15 15 14 14 13 12 12 12 11 10 9 8 7 6 6 4 4 4 5 6 6 7 6 5 5 6 5 5 5 5 4
12 13 13 13 14 15 15 15 15 15 15 15 15 14 13 13 13 12 12 11 11 11 9 8 7 6 6 5 4 3 5 6 7 6 6 4 4 5 5 5 5 5 4 4
14 15 15 15 16 16 15 15 15 14 13 13 14 14 13 13 12 11 10 9 8 8 8 7 6 5 5 4 3 4 5 6 7 6 5 5 5 5 5 5 5 5 4 4
16 16 16 16 15 15 15 14 14 14 13 13 13 13 13 12 11 10 9 9 8 6 6 6 4 4 4 3 1 5 6 6 6 5 4 4 5 5 5 5 5 4 4 4
15 15 16 15 14 13 13 13 13 13 13 12 12 12 12 11 10 9 9 7 7 5 4 6 6 7 7 5 3 6 6 6 5 5 4 4 4 4 4 4 3 4 4 3
13 13 14 14 14 13 13 12 12 11 11 11 11 10 10 9 8 8 8 7 7 6 6 7 7 8 9 3 5 6 6 5 4 4 4 4 4 4 3 3 3 3 3 3
12 12 12 13 13 13 12 11 11 10 10 10 9 9 9 8 8 8 9 9 9 8 7 7 6 6 6 2 4 5 5 4 3 3 4 4 3 4 3 3 3 3 3 3
11 11 12 12 11 10 11 11 11 10 9 8 9 8 7 8 9 9 10 10 10 8 8 6 2 3 2 3 5 5 5 5 5 4 4 3 3 3 3 2 3 3 3 3
9 9 8 7 7 7 7 8 8 7 8 8 7 7 8 9 10 9 8 9 9 7 6 6 5 3 2 4 4 4 4 4 2 2 3 2 2 3 3 3 3 3 3 3
9 8 6 6 6 6 6 6 7 7 7 7 7 7 8 8 8 8 9 8 8 7 6 5 5 4 3 4 4 3 2 2 1 2 2 2 2 2 2 2 2 3 3 4
Wind_Direction
265 269 253 249 269 279 282 279 276 277 286 264 184 208 231 183 148 144 150 151 150 150 152 154 155 157 158 162 162 162 161 164 165 166 167 166 166 168 166 173 177 162 143 120
269 268 262 250 240 253 263 270 273 276 272 243 194 143 192 176 156 158 165 161 156 156 158 161 160 160 158 158 158 159 161 163 161 161 161 161 160 153 141 131 117 110 97 85
266 270 265 253 239 240 247 253 264 279 299 82 122 129 131 133 143 160 166 159 157 159 159 159 160 157 156 154 152 154 157 158 155 155 156 156 153 135 126 118 107 100 94 87
263 269 266 274 276 266 268 274 285 309 349 43 62 61 62 71 93 105 129 142 150 151 151 153 153 153 149 150 149 151 152 151 148 147 142 133 124 117 110 107 105 101 96 91
261 262 262 268 289 309 304 290 323 346 29 54 60 53 55 46 65 73 75 89 115 137 143 142 148 148 144 144 145 145 142 136 134 134 127 119 114 110 107 105 100 97 95 90
252 259 264 284 331 355 321 284 16 23 26 35 13 311 61 54 61 61 61 67 76 99 111 116 124 130 129 126 123 122 121 116 111 109 109 109 107 106 105 103 100 95 88 83
247 255 260 334 334 314 283 342 21 24 24 21 32 57 82 70 66 63 61 66 74 83 91 100 110 114 114 111 110 107 103 99 97 98 99 101 103 104 106 103 100 98 96 89
254 256 258 17 8 13 10 0 7 23 41 57 74 83 88 85 78 74 71 72 80 80 79 85 99 107 107 103 103 101 98 96 95 93 97 99 96 95 99 106 108 109 110 104
266 286 13 16 8 359 345 341 353 12 47 84 98 98 102 97 92 85 80 79 83 86 81 76 85 98 102 102 104 102 97 93 90 86 85 90 93 96 100 104 111 116 115 107
285 288 355 358 7 3 357 353 359 22 57 100 110 114 113 106 100 94 87 86 88 89 88 82 82 89 97 99 100 100 98 97 94 90 81 71 70 69 65 56 78 93 88 91
275 313 338 358 5 359 5 6 16 41 68 104 117 120 116 108 103 100 94 90 89 90 91 89 87 87 89 94 99 100 100 100 98 93 89 78 69 59 68 54 57 69 67 69
310 355 334 335 359 4 20 27 48 76 83 95 110 113 110 105 102 100 97 95 93 92 91 89 88 87 86 89 95 102 105 105 106 109 109 107 100 81 59 66 67 72 76 84
10 13 24 353 6 21 49 59 74 88 97 100 102 107 106 103 100 99 96 95 96 96 95 93 90 88 84 85 89 91 96 98 106 112 117 117 118 116 106 77 63 67 76 85
54 49 41 38 59 72 87 91 92 91 96 102 105 105 105 104 101 99 96 95 93 93 92 90 87 85 84 82 80 84 91 93 99 106 112 117 123 127 129 128 118 102 95 112
61 69 89 92 88 90 95 100 99 98 101 103 105 106 106 105 102 99 96 95 93 89 87 86 85 84 85 85 80 75 78 80 82 97 105 113 125 126 122 123 122 124 128 143
105 101 102 102 99 99 100 101 104 106 107 108 108 108 107 106 105 103 103 103 101 98 96 95 92 89 89 93 97 93 84 74 71 88 94 96 96 99 100 103 109 114 104 76
122 117 114 111 110 109 108 106 108 111 114 117 117 116 113 110 108 107 108 106 102 101 99 95 93 91 84 79 92 102 104 101 90 79 72 70 75 77 74 72 76 88 88 84
121 123 123 123 121 119 119 117 117 117 119 121 121 119 118 117 115 113 113 110 104 99 95 92 88 86 77 58 45 82 95 91 79 75 73 64 61 73 78 78 73 80 101 112
119 118 119 120 121 121 120 120 120 120 122 124 124 123 120 118 118 118 116 112 109 105 101 97 92 92 84 59 31 86 89 95 91 86 88 93 76 71 71 70 65 63 62 62
119 118 116 116 115 117 119 121 122 123 125 127 125 122 119 119 119 118 114 107 103 106 111 108 108 97 89 49 3 86 82 84 85 86 81 78 78 74 65 59 57 55 50 46
120 118 116 115 116 119 120 122 123 125 127 128 126 124 124 125 125 122 117 107 99 100 111 108 97 88 66 18 344 90 88 86 86 81 76 75 73 70 66 59 53 46 41 34
118 117 117 119 119 117 118 120 122 124 125 125 124 125 126 123 118 113 106 109 114 108 118 108 89 60 22 346 80 88 85 82 84 87 80 75 79 76 67 56 51 48 42 33
117 118 120 121 120 119 119 120 122 123 123 124 125 128 127 126 125 123 118 112 111 95 91 87 72 43 360 17 78 85 85 85 84 87 83 77 81 80 71 57 52 48 37 19
115 116 118 119 119 119 118 118 117 119 122 123 125 128 129 124 117 111 111 105 97 101 99 91 63 25 341 81 90 90 86 82 80 76 74 70 69 70 61 49 41 38 36 20
114 116 115 117 120 121 122 125 127 129 130 129 129 128 123 117 118 116 118 120 126 120 119 116 83 347 347 82 85 85 79 59 51 45 61 60 55 62 57 44 34 18 14 13
113 115 114 116 117 128 135 136 137 137 132 127 121 117 111 111 116 123 129 136 136 138 139 146 157 191 156 113 105 102 109 124 128 116 74 64 60 50 41 21 5 0 0 2
124 121 123 126 134 134 130 128 126 127 125 127 128 124 124 127 131 137 141 146 154 156 152 156 158 163 146 129 126 126 127 126 106 93 96 77 57 38 28 5 346 344 337 336
Height
1432 1427 1429 1437 1441 1440 1443 1443 1443 1436 1433 1435 1436 1438 1440 1442 1443 1447 1451 1455 1459 1463 1468 1472 1475 1479 1482 1485 1488 1491 1494 1497 1500 1504 1507 1510 1513 1516 1518 1521 1524 1526 1528 1530
1437 1429 1429 1435 1437 1441 1441 1438 1434 1429 1430 1426 1430 1433 1438 1440 1443 1447 1451 1454 1458 1463 1467 1471 1474 1478 1481 1485 1488 1491 1494 1497 1500 1503 1506 1509 1512 1514 1517 1519 1522 1524 1526 1528
1445 1433 1433 1443 1435 1436 1436 1430 1428 1430 1427 1425 1432 1434 1436 1439 1442 1446 1450 1452 1456 1461 1466 1469 1473 1477 1480 1484 1487 1491 1494 1497 1500 1502 1505 1508 1511 1513 1515 1518 1520 1523 1525 1526
1445 1444 1455 1434 1421 1423 1425 1423 1422 1423 1424 1427 1432 1435 1437 1440 1443 1446 1449 1452 1455 1460 1464 1468 1472 1476 1480 1483 1487 1490 1493 1496 1499 1501 1504 1507 1510 1512 1515 1517 1519 1521 1523 1524
1447 1448 1442 1429 1424 1424 1428 1429 1424 1425 1429 1432 1435 1437 1441 1444 1444 1446 1449 1452 1455 1459 1463 1467 1471 1475 1478 1482 1486 1489 1492 1495 1498 1500 1503 1506 1509 1511 1514 1516 1518 1520 1522 1524
1447 1453 1453 1437 1426 1427 1431 1436 1433 1431 1433 1435 1437 1440 1448 1448 1447 1448 1450 1452 1455 1459 1462 1466 1470 1474 1477 1481 1484 1488 1491 1494 1497 1500 1502 1505 1508 1511 1513 1516 1518 1520 1522 1524
1446 1448 1439 1434 1429 1430 1444 1447 1441 1439 1439 1440 1443 1447 1451 1451 1451 1452 1454 1455 1457 1459 1462 1466 1470 1473 1477 1481 1484 1488 1491 1494 1497 1500 1503 1506 1509 1511 1514 1516 1518 1520 1522 1524
1444 1448 1447 1438 1436 1441 1447 1445 1443 1443 1444 1446 1448 1450 1452 1453 1455 1456 1457 1458 1460 1461 1464 1468 1471 1474 1478 1482 1485 1489 1492 1495 1498 1501 1504 1507 1510 1512 1515 1517 1519 1521 1523 1525
1443 1446 1442 1442 1443 1445 1445 1445 1445 1445 1447 1448 1450 1452 1454 1456 1457 1459 1460 1462 1463 1465 1467 1471 1473 1476 1479 1483 1487 1490 1493 1496 1500 1503 1506 1509 1512 1515 1517 1519 1521 1523 1525 1527
1441 1440 1441 1443 1444 1445 1446 1446 1446 1447 1448 1449 1451 1454 1456 1458 1460 1462 1464 1465 1467 1468 1471 1474 1477 1480 1483 1486 1489 1492 1495 1499 1503 1506 1509 1511 1514 1517 1519 1522 1524 1526 1527 1528
1442 1442 1443 1444 1446 1446 1446 1446 1446 1447 1448 1449 1451 1454 1457 1459 1462 1465 1467 1470 1471 1473 1475 1478 1481 1483 1487 1489 1492 1495 1498 1502 1505 1508 1511 1514 1516 1518 1521 1523 1525 1527 1528 1529
1446 1446 1448 1448 1448 1448 1447 1447 1447 1448 1450 1451 1452 1455 1459 1461 1465 1468 1471 1473 1475 1477 1480 1482 1485 1487 1490 1493 1496 1498 1501 1505 1509 1512 1514 1516 1518 1521 1523 1526 1527 1528 1529 1530
1447 1447 1448 1449 1449 1448 1448 1448 1449 1450 1451 1453 1456 1458 1461 1464 1468 1472 1475 1478 1481 1482 1485 1488 1490 1493 1496 1498 1501 1503 1505 1509 1513 1516 1518 1520 1522 1524 1525 1527 1529 1530 1530 1531
1447 1447 1448 1449 1449 1449 1449 1449 1450 1452 1454 1456 1459 1462 1465 1468 1473 1476 1479 1483 1486 1488 1491 1494 1496 1499 1502 1504 1506 1508 1510 1513 1516 1519 1521 1523 1525 1526 1528 1528 1530 1531 1532 1532
1448 1449 1450 1450 1450 1450 1451 1452 1453 1455 1457 1460 1463 1466 1469 1473 1477 1481 1485 1488 1491 1494 1496 1499 1502 1505 1507 1509 1510 1512 1515 1517 1519 1522 1524 1525 1527 1528 1530 1531 1531 1532 1532 1532
1450 1451 1452 1452 1453 1454 1455 1456 1457 1459 1462 1466 1469 1472 1475 1478 1482 1487 1491 1494 1496 1499 1502 1504 1507 1509 1511 1513 1515 1517 1519 1520 1522 1524 1526 1528 1529 1530 1531 1532 1532 1533 1533 1533
1451 1453 1454 1456 1457 1458 1460 1461 1463 1465 1468 1471 1475 1478 1481 1484 1488 1492 1496 1500 1502 1504 1507 1509 1511 1513 1515 1517 1519 1521 1523 1524 1525 1527 1528 1529 1530 1531 1532 1533 1534 1534 1533 1533
1452 1454 1456 1457 1459 1461 1464 1467 1469 1471 1474 1477 1480 1483 1487 1490 1494 1497 1501 1504 1507 1509 1511 1513 1515 1517 1518 1520 1522 1524 1525 1526 1527 1528 1529 1530 1531 1533 1533 1534 1534 1534 1534 1534
1454 1456 1458 1460 1463 1466 1469 1472 1475 1477 1480 1483 1486 1489 1493 1496 1499 1502 1506 1508 1510 1513 1515 1517 1518 1520 1521 1522 1524 1526 1527 1528 1529 1529 1530 1531 1533 1534 1534 1535 1535 1535 1535 1535
1457 1460 1462 1464 1467 1470 1473 1477 1480 1483 1487 1489 1492 1495 1498 1501 1504 1507 1509 1512 1514 1516 1518 1519 1521 1522 1523 1525 1526 1528 1528 1529 1530 1531 1532 1533 1534 1535 1535 1535 1535 1535 1535 1535
1461 1464 1467 1469 1472 1476 1479 1482 1485 1488 1491 1494 1497 1499 1502 1505 1508 1510 1512 1514 1517 1518 1520 1522 1523 1524 1525 1526 1528 1529 1530 1531 1532 1532 1533 1534 1535 1535 1536 1536 1536 1536 1535 1535
1465 1468 1471 1474 1477 1481 1484 1487 1490 1493 1496 1499 1501 1504 1506 1508 1511 1513 1515 1517 1519 1520 1522 1524 1525 1525 1526 1528 1529 1530 1531 1532 1533 1534 1534 1535 1535 1536 1536 1536 1536 1536 1535 1535
1470 1473 1476 1479 1482 1485 1489 1492 1495 1497 1500 1502 1505 1507 1509 1511 1513 1515 1517 1519 1520 1522 1523 1525 1525 1527 1528 1529 1531 1531 1532 1533 1534 1535 1535 1536 1536 1536 1536 1536 1536 1535 1535 1534
1474 1478 1481 1484 1487 1490 1493 1496 1498 1501 1503 1505 1508 1510 1512 1514 1516 1517 1518 1520 1521 1523 1524 1525 1527 1528 1529 1531 1532 1533 1533 1534 1535 1535 1536 1536 1536 1536 1536 1536 1535 1535 1534 1533
1479 1482 1485 1488 1491 1494 1496 1499 1501 1504 1506 1508 1510 1512 1514 1515 1517 1518 1519 1521 1523 1524 1526 1527 1528 1529 1530 1532 1532 1533 1534 1534 1535 1535 1536 1536 1536 1536 1536 1535 1535 1534 1534 1532
1484 1486 1489 1492 1494 1497 1499 1501 1503 1505 1507 1510 1512 1514 1515 1516 1518 1519 1520 1522 1524 1525 1526 1527 1529 1530 1531 1532 1533 1534 1534 1535 1535 1535 1536 1536 1536 1535 1535 1535 1534 1533 1532 1531
1487 1490 1492 1495 1497 1499 1501 1503 1505 1507 1509 1511 1513 1514 1516 1517 1519 1520 1522 1523 1524 1526 1527 1529 1530 1531 1532 1533 1534 1534 1535 1535 1535 1535 1535 1535 1535 1535 1534 1534 1533 1532 1531 1530